Temperature
20 21 21 20 20 20 20 20 20 19 19 19 19 19 19 19 19 19 19 19 19 19 19 19 19 19 19 19 19 19 19 19 19 19 19 19 19 19 19 18 18 18 19
21 21 21 21 20 20 20 20 20 20 19 19 19 19 19 19 19 19 19 19 19 19 19 19 19 19 19 19 19 19 19 19 19 19 19 19 19 19 19 19 18 18 19
20 21 21 21 20 20 20 20 20 20 20 20 19 19 19 19 19 19 19 19 19 19 19 19 19 19 19 19 19 19 19 19 19 18 18 18 19 19 19 19 19 19 18
20 21 20 21 20 20 20 20 20 20 20 20 20 19 19 19 19 19 19 19 19 19 19 19 19 19 19 19 19 19 19 19 19 18 18 18 19 19 19 19 19 18 18
20 20 20 20 20 20 20 20 20 20 20 19 19 19 19 19 19 19 19 19 19 19 19 19 18 18 18 18 18 18 19 19 18 18 18 18 18 19 19 19 19 18 18
20 20 20 20 20 20 19 19 19 19 19 19 19 19 19 19 19 19 19 19 19 19 19 19 18 18 18 18 18 18 18 18 18 18 18 18 18 19 19 19 18 18 18
20 20 21 20 20 20 19 19 19 19 19 19 19 19 19 19 19 19 19 19 19 19 19 19 18 18 18 18 18 18 18 18 18 18 18 18 18 19 19 19 18 18 18
21 20 21 20 20 20 20 19 19 19 19 19 19 19 19 19 19 19 19 19 19 19 19 19 18 18 18 18 18 18 18 18 18 18 18 18 19 19 19 18 18 18 18
21 21 21 20 20 20 20 20 19 19 19 19 19 19 19 19 19 19 19 19 19 19 19 19 19 18 18 18 18 18 18 18 18 18 18 18 19 19 19 19 18 18 18
21 21 20 20 20 20 20 20 19 19 19 19 19 19 19 19 19 19 19 19 19 19 19 19 19 19 18 18 18 18 18 18 18 18 18 18 18 19 19 19 18 18 18
21 21 21 20 19 19 19 20 19 19 19 19 19 19 19 19 19 19 19 19 19 19 19 19 19 19 19 18 18 18 18 18 18 18 18 18 18 19 19 19 19 18 18
20 20 20 20 20 19 19 19 19 19 19 19 19 19 19 19 18 18 18 18 18 19 19 19 19 19 19 19 18 18 18 18 18 18 18 18 18 18 19 19 19 18 18
19 20 20 20 20 20 20 19 19 19 19 19 19 18 18 18 18 18 18 18 18 19 19 19 19 19 19 18 18 19 19 18 18 18 18 18 18 18 18 18 18 18 18
19 19 19 19 20 20 20 19 19 19 19 19 18 18 18 18 18 18 18 18 18 18 18 18 19 19 19 18 19 19 19 19 19 19 18 18 18 18 18 18 18 18 18
19 19 19 19 19 19 19 19 19 19 19 19 18 18 18 18 18 18 18 18 18 18 18 18 18 18 19 19 19 19 19 19 19 19 19 18 18 18 18 18 18 18 18
18 18 18 18 18 18 19 19 19 19 19 19 19 19 18 18 18 18 18 18 18 18 18 18 19 19 19 20 20 20 20 19 19 19 19 18 18 18 18 18 18 18 18
17 17 17 17 18 18 18 18 18 19 19 19 19 19 19 18 18 19 19 18 18 18 18 18 19 19 20 20 20 20 20 20 19 19 19 18 18 18 18 18 18 18 18
17 16 16 17 17 17 17 18 18 18 18 18 18 19 19 18 18 19 19 19 18 18 18 19 19 19 19 19 19 20 20 20 19 19 19 18 18 18 18 18 18 18 18
16 16 16 16 16 16 16 17 17 18 18 18 18 18 18 18 18 18 19 19 19 18 18 18 19 19 19 19 19 19 19 19 19 19 19 19 18 18 18 18 18 18 18
15 15 15 15 15 16 16 16 16 17 17 17 18 18 18 18 18 18 18 18 19 18 18 18 18 18 19 19 19 19 19 19 19 19 19 19 19 18 18 18 18 18 18
14 14 14 15 15 15 15 15 15 16 16 17 17 17 18 18 18 18 18 18 18 18 18 18 18 18 18 18 19 19 19 19 19 19 19 19 19 19 18 18 18 18 18
13 13 13 14 14 14 14 14 14 15 15 16 16 17 17 17 18 18 18 18 18 18 18 18 18 18 18 18 18 18 18 19 19 19 19 19 19 19 18 18 18 17 17
13 12 13 13 13 13 13 14 14 14 15 15 15 16 16 16 17 17 17 18 18 18 18 18 18 18 17 17 17 17 18 18 18 18 18 18 18 19 18 18 18 18 18
12 12 12 13 13 13 13 13 13 14 14 14 15 15 16 16 16 16 17 17 17 17 17 18 18 17 17 17 17 17 17 18 18 18 18 18 18 18 18 18 18 18 18
12 12 12 12 12 13 13 13 13 13 14 14 14 15 15 15 16 16 16 17 17 17 17 17 17 17 17 17 17 17 17 17 17 17 18 18 18 18 18 18 18 18 18
12 12 12 12 12 13 13 13 13 13 13 14 14 14 15 15 15 16 16 16 16 17 17 17 17 17 17 17 17 17 17 17 17 17 17 17 17 18 17 18 18 18 18
Wind_Speed
12 15 14 12 11 10 9 9 9 9 8 7 7 6 6 6 5 5 5 4 4 3 3 3 4 5 5 6 7 8 9 9 8 8 9 10 10 10 10 10 7 11 10
15 17 15 13 11 10 9 9 9 9 8 7 7 6 6 5 5 5 4 4 4 3 3 3 3 4 4 5 5 6 6 6 5 4 5 9 10 10 10 12 12 10 10
17 17 15 13 12 10 9 8 8 8 8 7 7 6 5 5 5 4 4 4 4 4 3 3 3 4 4 4 4 4 4 4 4 4 3 5 10 10 9 10 10 9 9
16 16 14 14 12 10 9 8 7 7 7 7 6 6 5 4 4 4 4 4 4 4 4 4 4 4 4 4 3 2 2 3 5 7 4 8 10 9 8 9 9 8 8
14 15 16 14 11 10 8 7 7 6 6 6 5 5 4 4 4 3 3 3 4 3 4 4 4 4 4 4 2 1 1 4 7 6 7 12 11 8 8 8 8 8 7
13 16 16 13 11 10 8 7 6 6 6 6 5 5 4 4 3 3 3 3 3 3 3 3 4 4 4 4 3 2 2 4 7 3 8 11 10 7 7 7 7 7 7
13 16 16 13 11 10 8 8 7 6 6 6 6 5 5 4 4 3 3 3 3 3 3 3 4 4 4 4 3 2 3 5 7 2 9 12 9 7 7 7 7 7 7
12 15 16 15 13 11 10 9 8 8 7 7 7 7 6 6 5 4 4 4 4 3 3 3 3 4 4 4 3 3 3 6 4 4 13 12 9 7 7 6 6 6 6
9 13 14 15 14 13 12 11 11 10 9 9 9 8 8 8 7 7 6 6 5 4 3 3 4 4 4 5 4 4 4 6 8 2 12 11 9 7 6 6 6 6 5
5 5 9 13 15 15 15 15 14 13 12 11 11 10 10 10 10 10 9 9 7 6 5 4 4 5 5 6 6 6 6 8 8 5 12 11 9 7 5 5 5 5 5
8 7 5 2 4 10 14 16 17 15 14 13 12 13 12 12 13 13 14 13 11 9 7 7 6 6 7 8 8 8 7 9 6 8 11 12 10 7 5 5 5 5 5
10 10 10 8 6 4 2 8 12 12 13 14 12 13 14 14 14 15 16 17 14 11 10 9 9 9 9 10 11 11 10 13 8 9 12 14 10 7 5 5 5 5 5
9 9 9 9 9 8 5 1 3 4 7 10 12 12 13 13 11 11 11 14 13 13 11 12 11 11 12 12 11 12 13 11 7 9 13 13 10 7 6 5 5 5 5
7 7 8 8 5 6 6 5 2 0 2 3 7 9 10 6 6 7 7 12 13 12 11 11 10 14 15 15 13 13 12 7 6 11 13 13 10 7 6 6 6 5 5
5 5 5 5 6 4 3 3 3 2 1 2 3 5 7 5 5 4 4 6 11 13 11 7 9 9 9 8 11 10 8 9 10 13 13 14 12 8 7 7 7 6 5
7 7 5 5 4 4 4 3 2 3 3 3 3 5 6 6 5 3 4 4 5 7 10 8 7 6 4 3 3 4 5 8 10 15 14 14 14 12 9 8 7 7 7
10 9 8 7 4 5 5 4 3 3 4 3 4 6 5 5 6 5 5 5 4 6 7 7 7 5 5 4 3 2 3 5 7 12 16 14 13 13 12 10 8 7 8
11 11 10 9 7 6 5 4 3 4 4 4 5 5 6 7 8 5 5 5 5 4 3 3 3 3 3 4 3 3 3 3 3 6 12 15 15 13 13 12 10 8 7
11 11 12 10 9 7 6 5 5 4 4 4 5 5 7 8 9 5 5 5 5 2 3 4 3 2 2 3 4 5 4 5 5 5 6 10 15 16 14 14 13 11 9
11 11 12 11 9 8 5 5 5 5 4 3 4 5 7 7 8 5 4 5 4 3 3 3 3 2 2 2 4 4 4 4 5 6 5 4 10 15 17 15 14 12 11
12 12 13 12 10 8 5 5 5 5 4 4 4 6 6 7 8 6 5 5 5 4 4 4 3 3 2 1 1 2 1 3 5 6 5 4 4 9 15 17 15 14 12
13 13 14 13 11 10 7 7 6 6 5 5 4 4 7 8 7 7 7 6 6 5 5 5 4 2 2 2 2 1 2 3 2 3 4 5 5 5 7 13 14 16 15
13 14 14 13 12 10 9 7 7 6 6 5 5 5 5 6 6 6 8 7 7 7 7 7 6 6 6 4 4 3 4 5 2 3 4 4 5 3 4 5 9 15 18
13 13 13 12 12 11 10 7 8 6 6 7 6 5 5 5 5 6 7 8 8 8 9 9 9 7 8 7 5 5 4 3 4 3 2 2 3 3 4 4 3 7 13
12 11 11 11 10 10 10 8 7 6 6 6 6 6 6 5 4 4 5 6 8 8 9 9 8 9 8 9 7 5 5 3 3 3 3 2 1 1 1 1 1 2 8
10 10 10 10 11 11 11 10 8 8 8 8 7 6 5 4 3 3 3 4 5 6 8 8 9 10 10 10 8 7 6 4 5 4 4 3 3 2 1 1 1 1 4
Wind_Direction
126 127 133 127 120 112 106 105 109 115 117 117 115 113 106 100 91 81 72 63 55 51 54 59 65 71 72 69 63 57 55 53 56 67 75 73 68 61 52 45 69 88 85
126 128 134 131 127 121 115 112 113 115 117 117 116 113 108 104 100 96 89 79 71 65 64 71 81 83 83 80 71 64 57 45 38 55 87 87 76 66 59 58 71 81 82
124 130 137 137 135 131 127 124 122 121 121 121 119 117 115 111 106 103 100 93 86 85 87 88 103 104 101 90 79 66 53 18 347 337 324 104 92 69 64 67 75 78 79
127 139 140 140 140 138 137 135 132 130 128 127 126 123 121 119 114 109 108 103 98 97 101 106 119 126 121 106 88 64 27 324 313 320 28 87 84 72 68 71 75 77 79
127 131 132 144 145 146 146 143 142 142 140 140 138 136 132 130 126 118 113 111 105 103 109 118 130 134 137 128 120 129 273 292 306 324 69 83 80 74 72 74 74 76 80
128 127 138 148 153 156 156 158 159 160 158 159 157 154 150 149 145 140 132 122 115 113 117 126 139 145 145 146 156 187 242 279 295 330 86 95 90 78 74 73 76 77 76
134 133 144 153 159 165 171 175 178 180 178 179 178 176 174 173 169 166 160 148 136 130 128 138 150 155 155 154 161 193 244 277 271 208 104 95 93 83 75 73 75 78 77
132 137 146 160 167 174 182 189 193 194 194 194 193 194 193 193 192 190 182 172 161 152 149 156 167 170 173 173 179 204 254 284 277 135 108 97 94 85 77 71 73 78 80
131 142 154 166 175 183 190 195 201 203 204 203 203 206 208 208 205 201 196 189 179 173 172 174 179 183 185 189 192 210 249 273 292 159 118 106 101 91 82 76 76 79 84
76 120 158 170 177 183 193 199 202 205 208 209 210 212 214 216 215 212 205 199 192 188 188 189 193 196 198 200 202 214 242 272 275 106 114 116 112 103 95 88 86 90 91
32 22 40 99 167 189 191 195 198 205 209 210 213 215 214 219 217 214 216 196 193 195 197 200 205 206 209 211 212 217 234 250 237 122 117 127 127 121 116 109 106 104 102
21 14 14 10 11 349 265 179 189 200 203 209 215 211 213 228 228 217 211 190 193 198 203 209 214 217 222 216 212 216 230 237 213 150 135 141 138 138 138 132 126 124 119
17 14 3 3 2 358 353 14 182 194 196 209 219 213 216 236 249 222 187 185 193 199 207 210 213 223 223 219 195 202 224 226 194 140 141 145 144 149 156 155 147 141 138
14 8 1 356 348 348 350 351 342 192 194 217 220 218 212 223 243 244 204 189 191 197 207 198 209 219 224 218 192 204 207 201 163 130 145 148 149 158 169 170 164 157 151
7 4 1 347 342 335 336 326 327 331 257 229 240 236 215 206 224 243 246 211 200 197 199 203 212 225 219 211 196 205 186 189 159 139 147 156 155 163 174 179 175 172 168
356 351 353 339 331 324 322 309 285 290 291 261 222 229 235 213 211 218 255 255 236 213 193 196 216 240 208 237 232 193 176 175 153 142 153 162 163 167 172 178 181 181 179
349 342 338 322 324 322 319 313 304 273 255 249 242 239 231 222 216 205 223 246 253 245 220 207 220 224 186 203 238 242 188 172 167 156 156 163 167 172 173 174 176 181 184
345 338 327 321 324 315 305 292 281 274 255 236 237 240 243 235 226 204 206 225 236 244 252 228 235 224 186 187 192 216 213 160 173 163 162 166 166 171 176 177 175 178 185
342 335 327 326 320 309 298 281 268 267 259 243 231 225 232 241 240 219 205 211 233 229 233 242 216 218 205 198 205 206 202 173 186 190 190 180 165 162 167 176 176 177 184
345 338 329 323 313 311 309 299 287 275 266 254 241 230 222 228 242 241 217 213 211 220 241 262 240 219 211 211 226 214 195 189 185 187 201 185 164 164 163 168 173 181 185
350 341 331 327 327 325 321 311 305 299 292 277 259 251 234 226 229 232 228 212 206 205 211 227 246 246 243 253 241 280 272 215 196 187 184 185 191 172 164 169 176 172 178
350 343 338 339 336 334 326 318 304 298 289 275 269 263 249 235 227 230 220 213 200 198 204 210 213 217 246 249 202 212 263 290 264 208 181 185 204 174 172 181 178 169 171
352 346 341 339 335 333 334 330 320 315 304 293 286 274 261 251 231 224 223 214 204 197 202 203 203 202 213 228 226 190 185 213 242 270 218 189 197 186 183 203 188 173 168
353 348 344 345 344 343 337 329 323 312 306 301 303 296 285 267 254 231 224 217 211 204 201 203 202 207 203 213 223 222 212 181 174 231 254 222 206 195 192 195 200 184 168
357 353 351 355 354 351 347 343 333 323 311 306 308 307 305 289 274 257 238 224 214 210 206 204 201 205 211 209 206 206 219 230 207 180 216 244 239 219 233 220 213 182 160
1 359 358 3 3 358 356 354 353 345 340 339 338 330 323 310 299 295 263 241 228 219 212 208 209 206 212 214 208 203 194 187 197 191 193 200 211 229 247 262 234 188 153
Height
1535 1536 1538 1540 1541 1543 1544 1546 1547 1548 1549 1551 1551 1552 1553 1554 1555 1556 1556 1557 1558 1558 1559 1559 1560 1561 1561 1561 1562 1562 1562 1562 1562 1562 1562 1561 1561 1560 1560 1560 1561 1561 1561
1535 1537 1539 1541 1542 1544 1545 1547 1548 1549 1550 1551 1552 1553 1554 1555 1555 1556 1557 1557 1558 1559 1559 1560 1560 1561 1561 1562 1562 1563 1563 1563 1563 1563 1563 1563 1563 1562 1562 1562 1562 1562 1562
1536 1538 1540 1542 1544 1545 1547 1548 1549 1550 1551 1552 1553 1553 1554 1555 1556 1556 1557 1557 1558 1559 1559 1560 1560 1561 1561 1562 1563 1563 1564 1565 1565 1565 1564 1564 1564 1564 1563 1563 1563 1563 1563
1538 1540 1542 1543 1545 1546 1547 1549 1550 1551 1551 1552 1553 1554 1555 1555 1556 1557 1557 1557 1558 1558 1559 1560 1560 1561 1561 1562 1563 1564 1565 1565 1566 1566 1566 1566 1565 1565 1564 1564 1564 1564 1564
1540 1542 1543 1544 1546 1547 1548 1549 1550 1551 1552 1553 1553 1554 1555 1556 1556 1557 1557 1557 1558 1558 1559 1560 1560 1561 1562 1563 1563 1564 1565 1566 1566 1566 1566 1566 1566 1566 1565 1565 1565 1565 1565
1542 1543 1544 1545 1546 1547 1548 1549 1550 1551 1552 1553 1553 1554 1555 1556 1556 1557 1557 1557 1558 1558 1558 1559 1560 1561 1562 1563 1563 1565 1566 1566 1566 1567 1567 1566 1566 1566 1566 1566 1565 1566 1566
1543 1544 1545 1546 1547 1547 1548 1549 1550 1551 1552 1552 1553 1554 1555 1555 1556 1556 1557 1557 1557 1558 1558 1559 1560 1561 1562 1563 1564 1565 1566 1566 1567 1567 1567 1567 1567 1567 1567 1566 1566 1566 1566
1545 1545 1545 1547 1547 1548 1549 1549 1550 1551 1551 1552 1553 1553 1554 1555 1555 1556 1556 1557 1557 1557 1558 1558 1559 1560 1561 1562 1563 1565 1566 1566 1567 1568 1568 1568 1568 1568 1567 1567 1567 1567 1567
1546 1546 1545 1546 1547 1548 1548 1549 1550 1550 1551 1551 1552 1553 1553 1554 1555 1555 1556 1556 1556 1557 1557 1558 1558 1559 1560 1562 1563 1564 1566 1567 1568 1569 1568 1568 1569 1568 1568 1568 1568 1568 1568
1547 1548 1546 1546 1546 1546 1547 1548 1549 1549 1550 1551 1551 1552 1552 1553 1554 1555 1555 1555 1556 1556 1557 1557 1558 1559 1560 1561 1562 1564 1565 1566 1567 1568 1568 1569 1569 1569 1569 1568 1568 1568 1569
1547 1548 1548 1547 1547 1546 1546 1546 1547 1548 1549 1549 1550 1551 1551 1552 1553 1553 1554 1554 1555 1555 1556 1556 1557 1558 1559 1560 1561 1563 1564 1566 1567 1567 1568 1569 1569 1569 1569 1568 1568 1569 1569
1546 1546 1546 1546 1546 1546 1546 1546 1546 1546 1547 1547 1548 1549 1550 1551 1551 1552 1552 1553 1554 1554 1555 1555 1556 1557 1558 1559 1561 1562 1564 1565 1566 1567 1567 1568 1568 1568 1568 1568 1568 1568 1569
1546 1545 1544 1544 1544 1544 1544 1544 1544 1545 1545 1546 1546 1547 1547 1548 1549 1551 1551 1551 1552 1553 1553 1554 1555 1556 1557 1558 1560 1562 1563 1564 1566 1566 1567 1567 1567 1567 1566 1566 1567 1568 1569
1545 1544 1543 1542 1542 1542 1542 1542 1542 1542 1543 1543 1544 1544 1545 1546 1546 1548 1549 1549 1550 1550 1551 1552 1553 1555 1556 1558 1560 1561 1562 1564 1565 1565 1566 1567 1566 1565 1565 1565 1566 1567 1568
1545 1543 1542 1540 1539 1538 1538 1538 1538 1539 1540 1540 1541 1542 1542 1543 1544 1544 1546 1547 1547 1548 1549 1551 1552 1553 1555 1558 1559 1560 1562 1563 1564 1564 1565 1566 1565 1565 1564 1564 1565 1566 1567
1545 1543 1541 1539 1537 1536 1535 1535 1535 1535 1535 1536 1537 1538 1539 1540 1541 1541 1542 1544 1545 1547 1548 1549 1551 1552 1555 1556 1558 1559 1561 1562 1563 1563 1564 1565 1565 1564 1564 1563 1564 1565 1566
1545 1542 1540 1538 1536 1534 1533 1531 1530 1530 1531 1531 1532 1533 1534 1536 1537 1538 1539 1540 1541 1543 1545 1547 1549 1551 1552 1554 1555 1557 1559 1560 1562 1562 1562 1563 1564 1564 1563 1563 1563 1564 1565
1543 1541 1538 1536 1534 1532 1530 1528 1527 1527 1527 1527 1527 1528 1530 1531 1533 1534 1534 1536 1538 1539 1540 1543 1545 1548 1550 1552 1553 1555 1557 1558 1560 1561 1561 1561 1562 1563 1563 1563 1563 1563 1564
1542 1539 1536 1533 1531 1529 1527 1525 1524 1523 1523 1523 1523 1524 1525 1527 1528 1529 1530 1532 1534 1536 1537 1538 1541 1544 1546 1549 1551 1553 1554 1556 1558 1559 1561 1561 1560 1561 1562 1562 1563 1563 1564
1540 1536 1533 1530 1528 1526 1524 1522 1521 1520 1519 1519 1519 1519 1520 1521 1523 1524 1526 1527 1529 1531 1532 1535 1537 1540 1543 1546 1548 1550 1551 1553 1555 1556 1558 1560 1560 1560 1560 1561 1562 1563 1563
1537 1534 1530 1527 1524 1522 1520 1519 1518 1516 1516 1515 1515 1515 1515 1516 1518 1519 1520 1522 1523 1525 1528 1530 1533 1536 1539 1542 1544 1546 1547 1549 1551 1553 1555 1557 1558 1559 1559 1560 1561 1561 1562
1536 1532 1528 1524 1521 1519 1517 1515 1514 1513 1511 1511 1510 1510 1510 1511 1511 1513 1515 1516 1518 1520 1523 1525 1528 1531 1534 1538 1540 1542 1544 1546 1547 1549 1550 1552 1555 1556 1557 1558 1559 1559 1560
1534 1530 1526 1521 1518 1516 1513 1511 1509 1508 1507 1507 1506 1506 1506 1506 1506 1507 1509 1511 1512 1514 1517 1520 1522 1525 1528 1532 1535 1538 1540 1540 1543 1545 1546 1548 1550 1552 1554 1556 1557 1558 1558
1534 1529 1524 1520 1517 1513 1510 1508 1506 1504 1503 1503 1502 1502 1501 1501 1501 1502 1503 1505 1507 1509 1511 1514 1517 1519 1523 1525 1529 1532 1535 1536 1539 1540 1542 1544 1545 1548 1550 1552 1555 1556 1557
1534 1529 1524 1520 1516 1512 1509 1506 1503 1502 1500 1499 1499 1498 1497 1497 1497 1497 1498 1499 1501 1503 1505 1508 1510 1513 1515 1518 1521 1525 1528 1531 1533 1536 1537 1539 1541 1543 1545 1548 1550 1553 1554
1534 1529 1525 1520 1516 1512 1509 1505 1503 1501 1499 1497 1496 1495 1494 1493 1493 1493 1494 1494 1496 1497 1499 1502 1504 1507 1509 1512 1515 1518 1521 1524 1526 1530 1532 1534 1537 1539 1541 1543 1546 1548 1550